Location: Kott?ru
(16.6209°N, 80.6208°E)
Time: 14:20:42
(UTC+00:00)

ATLAS 2AS CENTAUR R/B - Pass Details

Date: 18 September 2020
Orbit: 939 x 1273 km, 63.7° (Epoch: 27 October)

Event Time Altitude Azimuth Distance (km) Brightness Sun altitude
Rises 13:40:10 0° 180° (S) 4,043 5.7 -16.0°
Reaches altitude 10° 13:43:09 10° 170° (S) 3,127 5.0 -16.7°
Maximum altitude 13:49:46 33° 109° (ESE) 1,955 3.5 -18.3°
Enters shadow 13:53:33 22° 66° (ENE) 2,438 4.1 -19.1°
